Regional Weather Roundup
Issued by NWS Charleston, SC

Current Version | Previous Version | Graphics & Text | Print | Product List | Glossary On
Versions: 1 2 3 4 5 6 7 8 9 10 11 12 13 14 15 16 17 18 19 20 21 22 23 24 25 26 27 28 29 30 31 32 33 34 35 36 37 38 39 40 41 42 43 44 45 46 47 48 49 50
000
ASUS42 KCHS 302026
RWRCHS

REGIONAL WEATHER ROUNDUP
NATIONAL WEATHER SERVICE CHARLESTON SC
300 PM EST FRI JAN 30 2015

NOTE: "FAIR" INDICATES FEW OR NO CLOUDS BELOW 12,000 FEET WITH NO
SIGNIFICANT WEATHER AND/OR OBSTRUCTIONS TO VISIBILITY.

NOT ALL STATIONS ARE QUALITY CONTROLLED BY THE NATIONAL
WEATHER SERVICE. USE DATA WITH CAUTION...ESPECIALLY
DEWPOINT OBSERVATIONS.

SCZ027-030-031-034>040-042>050-302100-
...SOUTHEAST SOUTH CAROLINA...

CITY           SKY/WX    TMP DP  RH WIND       PRES   REMARKS
N CHARLESTON   SUNNY     58  25  28 NW17G26   30.13R
WATERFRONT PRK   N/A     55 N/A N/A NW14G22     N/A
MOUNT PLEASANT FAIR      55  30  38 NW17G28   30.12S
PINOPOLIS        N/A     54  34  47 NW17      30.05S
MONCKS CORNER  FAIR      57  28  33 N9G20     30.13S
SUMMERVILLE    FAIR      55  28  35 NW10G17   30.15R
BEAUFORT MCAS  SUNNY     60  33  36 NW13      30.14S
BEAUFORT ARPT  FAIR      59  36  41 NW13G18   30.13S
HILTON HEAD IS SUNNY     59  36  41 NW9G20    30.14S
WALTERBORO     CLEAR     59  10  14 NW13G23   30.15R
ALLENDALE      FAIR      57  30  35 N10G23    30.15S

...SOUTHERN MIDLANDS AND PEE DEE...

CITY           SKY/WX    TMP DP  RH WIND       PRES   REMARKS
GEORGETOWN     NOT AVBL
KINGSTREE      NOT AVBL
ORANGEBURG     SUNNY     55  18  23 N14G23    30.16S
BARNWELL       FAIR      57  30  35 N9        30.17R
AIKEN          FAIR      54  28  37 W8        30.20S
MANNING        FAIR      55  19  24 NW9G22    30.14S
COLUMBIA       SUNNY     55  17  22 NW16G23   30.17S
SUMTER         SUNNY     54  18  24 NW17G25   30.13S
FLORENCE       SUNNY     53  21  28 N20G28    30.13S
MYRTLE BEACH   SUNNY     54  25  32 NW18G30   30.11R
N MYRTLE BEACH SUNNY     53  24  32 NW14G24   30.09R

$$

GAZ063-065-086>088-099>101-113>116-118-119-134>141-150-302100-
...SOUTHEAST GEORGIA...

CITY           SKY/WX    TMP DP  RH WIND       PRES   REMARKS
SAVANNAH ARPT  SUNNY     60  29  30 NW15G22   30.15S
HUNTER AAF     SUNNY     61  31  31 N14G21    30.12S
FORT STEWART   SUNNY     61  31  32 NW8       30.14F
STATESBORO     SUNNY     58  30  34 NW12G20   30.16S
SYLVANIA       CLEAR     58  31  36 NW13G20   30.17S
CLAXTON        FAIR      59  32  36 NW12G18   30.17S

...CSRA...CENTRAL AND FAR SOUTHEAST GEORGIA...

CITY           SKY/WX    TMP DP  RH WIND       PRES   REMARKS
THOMSON        SUNNY     56  28  33 W12G17    30.24R
AUGUSTA-BUSH   SUNNY     57  20  23 N13G23    30.18F
AUGUSTA-DANIEL SUNNY     56  22  26 NW10G22   30.18F
SWAINSBORO     FAIR      59  -2   8 NW14G21   30.19S
VIDALIA        SUNNY     59  30  33 N16       30.19S
EASTMAN        FAIR      58  28  30 N9G17     30.23S
HAZLEHURST     FAIR      60  28  29 N14       30.18S
ALMA           SUNNY     59  28  30 NW12G18   30.18F
WAYCROSS       SUNNY     64  33  31 N10       30.18S
JESUP          FAIR      63  34  34 N5        30.16S
BAXLEY         FAIR      61  30  31 NW9       30.17F
BRUNSWICK      SUNNY     63  28  27 NW8G16    30.16S
SAINT SIMONS   SUNNY     61  30  31 W13G22    30.14F

$$

SCZ027-028-034-036>038-045-046-048>050-GAZ119-141-302100-
...LAKE AND SUPPLEMENTAL COASTAL OBSERVATIONS...

STATION/POSITION TIME  TEMP    WIND        PRES    WAVE   SWELL
                       AIR SEA DIR/SP/G            HT/PER HT/PER/DIR
                 (UTC) (F)     (DEG/KT/KT) (MB)    (FT/S) (FT/S/D)
UPR LAKE MARION  NOT AVBL
WINYAH BAY       1900   54     310/ 12     1018.0S
LAKE MURRAY      1900   52     320/  5/ 12 1021.3F
ACE BASIN NERRS  1900   59     330/  6     1020.0S
FORT PULASKI     2000   57 52  310/ 11/ 14 1020.9S
SAPELO ISLAND    2000   61     300/ 12     1021.0S

$$

ANZ835-935-AMZ111-154-330-350-352-354-370-450-454-472-302100-
...C-MAN AND BUOY OBSERVATIONS...

STATION/POSITION TIME  TEMP    WIND        PRES    WAVE   SWELL
                       AIR SEA DIR/SP/G            HT/PER HT/PER/DIR
                 (UTC) (F)     (DEG/KT/KT) (MB)    (FT/S) (FT/S/D)
BUOY 41004       1950   55 68  300/ 19/ 23 1018.5R   5/ 5   2/11
BUOY 41008       1950   54 54  320/ 10/ 14 1020.6S   3/ 4   2/ 60/10
FOLLY BEACH CMAN 2000   56     330/ 12/ 17 1020.3R
CAPERS NEARSHORE 1900   53     330/ 17/ 23   N/A
FRIPP NEARSHORE  1900   56     330/ 14/ 17 1019.6F


STATION/POSITION TIME  TEMP    WIND        PRES    WAVE   SWELL
                       AIR SEA DIR/SP/G            HT/PER HT/PER/DIR
                 (UTC) (F)     (DEG/KT/KT) (MB)    (FT/S) (FT/S/D)
5E ST. MARYS GA  1921      57                N/A     2/11
FRYING PAN BUOY  1950   52 63  310/ 19/ 25 1018.1R   6/ 5
BUOY 41025       1950   46 68  350/ 27/ 31 1015.0R   7/ 6   2/ 30/11
CAPE LOOKOUT NC  2000   47     320/ 19/ 23 1016.7R
BUOY 41002       1950   65 72  300/ 29/ 37 1012.0S  12/ 8
BUOY 41010       1920   69 74  270/ 19/ 25 1018.2F
ST AUGUSTINE FL  2000   60      30/ 11/ 13 1021.1R


$$



USA.gov is the U.S. government's official web portal to all federal, state and local government web resources and services.